This is the latest recevied weather packets stored in our database for station/object KC3ULW-13. If no packets are shown the sender has not sent any weather packets the latest 10 day(s).
| Time | Temp. | Humidity | Pressure | Rain* | Wind** | Luminosity | Snow |
|---|---|---|---|---|---|---|---|
| 1777996893 | 23.33° C | 48% | 1010.9 hPa | 0 mm | - | 248 W/m² | - |
| 1777996589 | 23.33° C | 48% | 1010.8 hPa | 0 mm | - | 513 W/m² | - |
| 1777996285 | 23.33° C | 48% | 1010.9 hPa | 0 mm | - | 419 W/m² | - |
| 1777995981 | 23.33° C | 48% | 1010.9 hPa | 0 mm | - | 556 W/m² | - |
| 1777995677 | 23.89° C | 48% | 1010.8 hPa | 0 mm | - | 717 W/m² | - |
| 1777995375 | 23.33° C | 49% | 1010.8 hPa | 0 mm | - | 699 W/m² | - |
| 1777995072 | 23.33° C | 49% | 1010.7 hPa | 0 mm | - | 708 W/m² | - |
| 1777994769 | 22.78° C | 50% | 1010.7 hPa | 0 mm | - | 739 W/m² | - |
| 1777994464 | 22.78° C | 50% | 1010.6 hPa | 0 mm | - | 757 W/m² | - |
| 1777994160 | 22.78° C | 50% | 1010.9 hPa | 0 mm | - | 229 W/m² | - |
| 1777993858 | 22.78° C | 51% | 1010.8 hPa | 0 mm | - | 762 W/m² | - |
| 1777993554 | 21.67° C | 51% | 1010.9 hPa | 0 mm | - | 817 W/m² | - |
| 1777993250 | 22.22° C | 52% | 1010.9 hPa | 0 mm | - | 341 W/m² | - |
| 1777992946 | 22.22° C | 53% | 1010.8 hPa | 0 mm | - | 394 W/m² | - |
| 1777992644 | 22.22° C | 51% | 1010.9 hPa | 0 mm | - | 316 W/m² | - |
| 1777992342 | 22.22° C | 51% | 1010.9 hPa | 0 mm | - | 323 W/m² | - |
| 1777992039 | 22.22° C | 51% | 1010.9 hPa | 0 mm | - | 491 W/m² | - |
| 1777991737 | 22.22° C | 51% | 1010.9 hPa | 0 mm | - | 369 W/m² | - |
| 1777991434 | 22.22° C | 52% | 1010.9 hPa | 0 mm | - | 324 W/m² | - |
| 1777991131 | 21.67° C | 52% | 1010.9 hPa | 0 mm | - | 595 W/m² | - |
| 1777990828 | 22.22° C | 52% | 1011 hPa | 0 mm | - | 613 W/m² | - |
| 1777990526 | 21.67° C | 52% | 1011 hPa | 0 mm | - | 586 W/m² | - |
| 1777989919 | 21.67° C | 53% | 1011.1 hPa | 0 mm | - | 510 W/m² | - |
| 1777989616 | 21.67° C | 53% | 1011.1 hPa | 0 mm | - | 338 W/m² | - |
| 1777989312 | 21.67° C | 53% | 1011.2 hPa | 0 mm | - | 408 W/m² | - |
* Rain latest hour (hover to see other rain measurements)
** Current wind speed in m/s (hover to see current wind gust speed)